Location: Capelle
(50.3413°N, 1.9974°E)
Time: 00:48:15
(UTC+00:00)

Cosmos 1110 Rocket - Pass Details

Date: 12 January 2026
Orbit: 749 x 776 km, 74.0° (Epoch: 18 February)

Event Time Altitude Azimuth Distance (km) Brightness Sun altitude
Rises 19:03:02 0° 214° (SW) 3,218 7.7 -26.3°
Reaches altitude 10° 19:05:27 10° 218° (SW) 2,292 6.9 -26.7°
Maximum altitude 19:10:34 59° 298° (WNW) 876 4.4 -27.5°
Enters shadow 19:11:48 46° 349° (NNW) 1,014 4.6 -27.7°
